* Astronomy

Members Login
Username 
 
Password 
    Remember Me  
Post Info TOPIC: Asteroid 2011 EF17


L

Posts: 131433
Date:
Asteroid 2011 EF17
Permalink  
 


Orbital elements:
2011 EF17 PHA, Earth MOID = 0.0091 AU
Epoch 2011 Feb. 8.0 TT = JDT 2455600.5 MPC
M 315.84227 (2000.0) P Q
n 0.26923505 Peri. 281.56909 +0.28555470 +0.95834032
a 2.3752809 Node 5.03706 -0.84787476 +0.25579257
e 0.7444454 Incl. 4.24987 -0.44672911 +0.12709832
P 3.66 H 18.9 G 0.15 U 9

MPEC 2011 - E39


__________________
Page 1 of 1  sorted by
 
Quick Reply

Please log in to post quick replies.



Create your own FREE Forum
Report Abuse
Powered by ActiveBoard